Location: New Plymouth
(39.0670°S, 174.0830°E)
Time: 23:57:41
(UTC+12:00)

STRAND 1 - Pass Details

Date: 29 August 2019
Orbit: 768 x 781 km, 98.5° (Epoch: 23 September)

Event Time Altitude Azimuth Distance (km) Brightness Sun altitude
Rises 20:36:57 0° 322° (NW) 3,254 ? -31.4°
Reaches altitude 10° 20:40:58 10° 290° (WNW) 2,343 ? -32.1°
Maximum altitude 20:42:47 12° 269° (W) 2,228 ? -32.5°
Drops below altitude 10° 20:44:37 10° 249° (WSW) 2,357 ? -32.8°
Sets 20:48:43 0° 217° (SW) 3,300 ? -33.6°
